Location: Czekanka
(50.4925°N, 19.2643°E)
Time: 22:51:44
(UTC+00:00)

FENGYUN 1C DEB - Visible Passes

Search period start: 18 November 2025 00:00
Search period end: 28 November 2025 00:00
Orbit: 800 x 866 km, 98.5° (Epoch: 17 November)

Date Brightness Start Highest point End Pass type
(mag) Time Alt. Az. Time Alt. Az. Time Alt. Az.
18 Nov ? 02:10:48 10° NE 02:15:05 25° E 02:19:21 10° SE visible
18 Nov ? 03:50:39 10° N 03:55:49 56° WNW 04:00:57 10° SW visible
18 Nov ? 15:21:03 10° SW 15:25:17 23° W 15:29:29 10° NW visible
19 Nov ? 01:54:18 10° NE 01:57:53 18° E 02:01:27 10° SE visible
19 Nov ? 03:33:35 10° NNE 03:38:52 76° WNW 03:44:06 10° SSW visible
19 Nov ? 05:15:28 10° NNW 05:18:24 15° NW 05:21:21 10° W visible
20 Nov ? 01:38:11 10° ENE 01:40:37 13° E 01:43:04 10° ESE visible
20 Nov ? 03:16:34 10° NNE 03:21:52 81° ESE 03:27:07 10° SSW visible
20 Nov ? 04:57:57 10° N 05:01:39 20° NW 05:05:19 10° W visible
21 Nov ? 02:59:36 10° NNE 03:04:50 60° ESE 03:10:01 10° S visible
21 Nov ? 04:40:37 10° N 04:44:51 25° WNW 04:49:04 10° WSW visible
22 Nov ? 02:42:42 10° NNE 02:47:44 44° E 02:52:41 10° S visible
22 Nov ? 04:23:21 10° N 04:28:01 33° WNW 04:32:38 10° SW visible
22 Nov ? 15:56:02 10° WSW 15:58:09 12° W 16:00:15 10° WNW visible
23 Nov ? 02:25:54 10° NNE 02:30:37 32° E 02:34:30 14° SSE visible
23 Nov ? 04:06:10 10° N 04:11:07 43° WNW 04:16:05 10° SW visible
23 Nov ? 15:37:27 10° SW 15:40:53 17° W 15:44:17 10° NW visible
24 Nov ? 02:09:13 10° NE 02:13:27 24° E 02:16:37 15° SE visible
24 Nov ? 03:49:02 10° N 03:54:12 57° WNW 03:58:12 17° SW visible
24 Nov ? 05:31:38 10° NNW 05:33:31 12° NW 05:35:25 10° WNW visible
24 Nov ? 15:19:28 10° SW 15:23:40 23° W 15:27:51 10° NW visible
25 Nov ? 01:52:43 10° NE 01:56:14 18° E 01:58:51 13° ESE visible
25 Nov ? 03:31:58 10° NNE 03:37:14 77° WNW 03:40:26 24° SSW visible
25 Nov ? 05:13:49 10° NNW 05:16:48 16° NW 05:19:47 10° W visible
26 Nov ? 01:36:38 10° ENE 01:38:59 13° E 01:41:09 10° ESE visible
26 Nov ? 03:14:57 10° NNE 03:20:14 80° ESE 03:22:45 32° S visible
26 Nov ? 04:56:19 10° N 05:00:01 20° NW 05:03:45 10° W visible
27 Nov ? 02:57:58 10° NNE 03:03:11 59° ESE 03:05:06 37° SSE visible
27 Nov ? 04:38:57 10° N 04:43:13 26° WNW 04:46:42 13° WSW visible
